{"data":{"norad_id":66406,"intl_designator":"2025-257AC","name":"STARLINK-34840","alt_names":[],"object_type":"PAYLOAD","status":"ACTIVE","operator":null,"country":"US","launch_date":"2025-11-09","launch_site_code":"AFETR","launch_vehicle":null,"mission":null,"orbit_class":"UNKNOWN","rcs_meters":null,"size_class":null,"mass_kg":null,"dimensions":null,"purposes":["comms"],"wikipedia_slug":null,"has_3d_model":false,"image_url":null,"decayed_at":null,"tle_current":{"epoch":"2026-05-25T05:11:17.553696Z","epoch_age_seconds":60411,"freshness":"FRESH","line1":"1 66406U 25257AC  26145.21617539  .00038115  00000+0  11326-2 0  9997","line2":"2 66406  53.1585 220.5879 0000738  62.3607 297.7471 15.34423320 31408","mean_motion":15.3442332,"eccentricity":7.38e-5,"inclination_deg":53.1585,"raan_deg":220.5879,"arg_perigee_deg":62.3607,"mean_anomaly_deg":297.7471,"bstar":0.0011326,"rev_number":3140,"period_min":93.846331793237,"perigee_km":462.1290802359,"apogee_km":463.13877802504,"semimajor_km":6840.7709291305,"source":"CELESTRAK","updated_at":"2026-05-25T13:38:21.205814Z"}}}